When you browse on this site, cookies collect data to enhance your experience and personalize the content and advertising you see.
Visit our Privacy Policy to learn more. By continuing to use the site, you agree to this use of cookies and data.
  • en France
  • Liste des pays
  • À 7 jours
  • Température de l'eau
  • Carte satellitaire
  • Carte météo
  • Widgets météo
  • user-avatar
    Se connecter

    Météo par heure à Trubcheva

    Ce jour, 23 Mai, Jeudi

    Heure Température Précipitation Vent Pression Humidité
    00:00 +15°C° 0 mm 2 m/s 735 mmHg 93%
    01:00 +14°C° 0 mm 2 m/s 735 mmHg 93%
    02:00 +14°C° 0 mm 2 m/s 735 mmHg 94%
    03:00 +14°C° 0 mm 2 m/s 735 mmHg 94%
    04:00 +14°C° 0 mm 2 m/s 735 mmHg 94%
    05:00 +15°C° 0 mm 2 m/s 735 mmHg 94%
    06:00 +16°C° 0.1 mm 2 m/s 735 mmHg 89%
    07:00 +18°C° 0.1 mm 2 m/s 734 mmHg 85%
    08:00 +20°C° 0.1 mm 3 m/s 734 mmHg 80%
    09:00 +21°C° 0.4 mm 3 m/s 734 mmHg 74%
    10:00 +22°C° 0.4 mm 3 m/s 734 mmHg 68%
    11:00 +24°C° 0.4 mm 3 m/s 734 mmHg 63%
    12:00 +25°C° 0 mm 3 m/s 734 mmHg 60%
    13:00 +25°C° 0 mm 3 m/s 734 mmHg 57%
    14:00 +26°C° 0 mm 3 m/s 734 mmHg 54%
    15:00 +25°C° 0.2 mm 2 m/s 734 mmHg 58%
    16:00 +25°C° 0.2 mm 2 m/s 733 mmHg 62%
    17:00 +25°C° 0.2 mm 2 m/s 733 mmHg 66%
    18:00 +23°C° 0.6 mm 2 m/s 733 mmHg 70%
    19:00 +20°C° 0.6 mm 2 m/s 733 mmHg 75%
    20:00 +18°C° 0.6 mm 2 m/s 733 mmHg 80%
    21:00 +17°C° 0.2 mm 2 m/s 734 mmHg 82%
    22:00 +17°C° 0.2 mm 2 m/s 734 mmHg 85%
    23:00 +16°C° 0.2 mm 2 m/s 734 mmHg 88%

    Demain, 24 Mai, Vendredi

    Heure Température Précipitation Vent Pression Humidité
    00:00 +16°C° 0 mm 2 m/s 734 mmHg 89%
    01:00 +15°C° 0 mm 2 m/s 734 mmHg 91%
    02:00 +15°C° 0 mm 2 m/s 734 mmHg 93%
    03:00 +15°C° 0.2 mm 2 m/s 735 mmHg 93%
    04:00 +15°C° 0.2 mm 2 m/s 735 mmHg 94%
    05:00 +15°C° 0.2 mm 2 m/s 735 mmHg 94%
    06:00 +16°C° 0.2 mm 2 m/s 735 mmHg 92%
    07:00 +17°C° 0.2 mm 3 m/s 736 mmHg 90%
    08:00 +18°C° 0.2 mm 3 m/s 736 mmHg 88%
    09:00 +18°C° 0 mm 4 m/s 736 mmHg 87%
    10:00 +18°C° 0 mm 4 m/s 736 mmHg 87%
    11:00 +18°C° 0 mm 4 m/s 737 mmHg 87%
    12:00 +18°C° 0 mm 4 m/s 737 mmHg 85%
    13:00 +18°C° 0 mm 4 m/s 737 mmHg 83%
    14:00 +18°C° 0 mm 4 m/s 737 mmHg 82%
    15:00 +18°C° 0 mm 4 m/s 737 mmHg 82%
    16:00 +18°C° 0 mm 4 m/s 737 mmHg 83%
    17:00 +18°C° 0 mm 3 m/s 737 mmHg 83%
    18:00 +17°C° 0 mm 3 m/s 737 mmHg 86%
    19:00 +16°C° 0 mm 3 m/s 737 mmHg 89%
    20:00 +14°C° 0 mm 4 m/s 737 mmHg 92%
    21:00 +13°C° 0 mm 4 m/s 737 mmHg 93%
    22:00 +13°C° 0 mm 4 m/s 737 mmHg 93%
    23:00 +12°C° 0 mm 4 m/s 737 mmHg 94%

    Après-demain, 25 Mai, Samedi

    Heure Température Précipitation Vent Pression Humidité
    00:00 +12°C° 0 mm 3 m/s 737 mmHg 94%
    01:00 +12°C° 0 mm 3 m/s 736 mmHg 94%
    02:00 +12°C° 0 mm 3 m/s 736 mmHg 95%
    03:00 +12°C° 0.1 mm 3 m/s 736 mmHg 95%
    04:00 +12°C° 0.1 mm 3 m/s 736 mmHg 95%
    05:00 +13°C° 0.1 mm 3 m/s 736 mmHg 95%
    06:00 +13°C° 0.1 mm 3 m/s 736 mmHg 93%
    07:00 +14°C° 0.1 mm 3 m/s 735 mmHg 92%
    08:00 +16°C° 0.1 mm 3 m/s 735 mmHg 91%
    09:00 +17°C° 0 mm 3 m/s 735 mmHg 89%
    10:00 +18°C° 0 mm 3 m/s 735 mmHg 87%
    11:00 +18°C° 0 mm 3 m/s 735 mmHg 86%
    12:00 +20°C° 0.9 mm 3 m/s 734 mmHg 81%
    13:00 +21°C° 0.9 mm 3 m/s 734 mmHg 77%
    14:00 +22°C° 0.9 mm 3 m/s 734 mmHg 72%
    15:00 +22°C° 0.6 mm 3 m/s 733 mmHg 75%
    16:00 +21°C° 0.6 mm 3 m/s 733 mmHg 78%
    17:00 +21°C° 0.6 mm 3 m/s 733 mmHg 80%
    18:00 +19°C° 0.1 mm 3 m/s 733 mmHg 84%
    19:00 +18°C° 0.1 mm 2 m/s 732 mmHg 87%
    20:00 +16°C° 0.1 mm 2 m/s 732 mmHg 90%
    21:00 +16°C° 0 mm 2 m/s 732 mmHg 91%
    22:00 +15°C° 0 mm 2 m/s 732 mmHg 92%
    23:00 +15°C° 0 mm 2 m/s 732 mmHg 93%

    26 Mai, Dimanche

    Heure Température Précipitation Vent Pression Humidité
    00:00 +14°C° 0 mm 2 m/s 732 mmHg 93%
    01:00 +14°C° 0 mm 2 m/s 731 mmHg 93%
    02:00 +14°C° 0 mm 1 m/s 731 mmHg 93%
    03:00 +14°C° 0 mm 1 m/s 731 mmHg 93%
    04:00 +15°C° 0 mm 1 m/s 732 mmHg 92%
    05:00 +15°C° 0 mm 1 m/s 732 mmHg 92%
    06:00 +16°C° 0 mm 2 m/s 732 mmHg 89%
    07:00 +17°C° 0 mm 2 m/s 732 mmHg 87%
    08:00 +18°C° 0 mm 3 m/s 732 mmHg 84%
    09:00 +19°C° 0.2 mm 4 m/s 732 mmHg 78%
    10:00 +20°C° 0.2 mm 4 m/s 732 mmHg 72%
    11:00 +21°C° 0.2 mm 4 m/s 732 mmHg 65%
    12:00 +22°C° 0 mm 4 m/s 732 mmHg 63%
    13:00 +22°C° 0 mm 4 m/s 732 mmHg 61%
    14:00 +22°C° 0 mm 4 m/s 732 mmHg 58%
    15:00 +22°C° 0 mm 4 m/s 733 mmHg 62%
    16:00 +21°C° 0 mm 4 m/s 733 mmHg 65%
    17:00 +21°C° 0 mm 3 m/s 733 mmHg 68%
    18:00 +19°C° 0 mm 3 m/s 733 mmHg 72%
    19:00 +17°C° 0 mm 3 m/s 733 mmHg 75%
    20:00 +14°C° 0 mm 3 m/s 733 mmHg 78%
    21:00 +13°C° 0 mm 3 m/s 733 mmHg 81%
    22:00 +12°C° 0 mm 3 m/s 734 mmHg 84%
    23:00 +11°C° 0 mm 3 m/s 734 mmHg 87%

    27 Mai, Lundi

    Heure Température Précipitation Vent Pression Humidité
    00:00 +11°C° 0 mm 3 m/s 734 mmHg 88%
    01:00 +11°C° 0 mm 3 m/s 734 mmHg 89%
    02:00 +10°C° 0 mm 3 m/s 734 mmHg 89%
    03:00 +11°C° 0 mm 4 m/s 734 mmHg 87%
    04:00 +12°C° 0 mm 4 m/s 734 mmHg 84%
    05:00 +13°C° 0 mm 5 m/s 734 mmHg 81%
    06:00 +14°C° 0 mm 5 m/s 735 mmHg 78%
    07:00 +15°C° 0 mm 6 m/s 735 mmHg 75%
    08:00 +16°C° 0 mm 6 m/s 735 mmHg 72%
    09:00 +17°C° 0 mm 7 m/s 735 mmHg 67%
    10:00 +17°C° 0 mm 7 m/s 736 mmHg 62%
    11:00 +18°C° 0 mm 7 m/s 736 mmHg 58%
    12:00 +18°C° 0 mm 7 m/s 737 mmHg 57%
    13:00 +18°C° 0 mm 7 m/s 737 mmHg 57%
    14:00 +20°C° 0 mm 7 m/s 737 mmHg 57%
    15:00 +20°C° 0 mm 6 m/s 738 mmHg 60%
    16:00 +19°C° 0 mm 5 m/s 738 mmHg 63%
    17:00 +19°C° 0 mm 4 m/s 738 mmHg 67%
    18:00 +17°C° 0 mm 3 m/s 738 mmHg 71%
    19:00 +16°C° 0 mm 3 m/s 739 mmHg 75%
    20:00 +14°C° 0 mm 2 m/s 739 mmHg 79%
    21:00 +13°C° 0 mm 2 m/s 739 mmHg 80%
    22:00 +13°C° 0 mm 2 m/s 740 mmHg 81%
    23:00 +12°C° 0 mm 2 m/s 740 mmHg 82%

    28 Mai, Mardi

    Heure Température Précipitation Vent Pression Humidité
    00:00 +12°C° 0 mm 1 m/s 740 mmHg 82%
    01:00 +11°C° 0 mm 1 m/s 741 mmHg 82%
    02:00 +11°C° 0 mm 1 m/s 741 mmHg 83%
    03:00 +12°C° 0 mm 1 m/s 741 mmHg 82%
    04:00 +12°C° 0 mm 1 m/s 741 mmHg 81%
    05:00 +13°C° 0 mm 1 m/s 741 mmHg 80%
    06:00 +15°C° 0 mm 2 m/s 741 mmHg 78%
    07:00 +16°C° 0 mm 2 m/s 741 mmHg 76%
    08:00 +18°C° 0 mm 3 m/s 742 mmHg 73%
    09:00 +19°C° 0 mm 4 m/s 741 mmHg 74%
    10:00 +20°C° 0 mm 4 m/s 741 mmHg 75%
    11:00 +21°C° 0 mm 5 m/s 741 mmHg 75%
    12:00 +22°C° 0.4 mm 4 m/s 741 mmHg 75%
    13:00 +23°C° 0.4 mm 4 m/s 741 mmHg 75%
    14:00 +24°C° 0.4 mm 3 m/s 741 mmHg 75%
    15:00 +24°C° 0 mm 3 m/s 740 mmHg 75%
    16:00 +25°C° 0 mm 3 m/s 740 mmHg 76%
    17:00 +25°C° 0 mm 3 m/s 740 mmHg 76%
    18:00 +24°C° 0 mm 3 m/s 740 mmHg 79%
    19:00 +22°C° 0 mm 3 m/s 740 mmHg 82%
    20:00 +20°C° 0 mm 4 m/s 740 mmHg 86%
    21:00 +20°C° 0 mm 4 m/s 740 mmHg 85%
    22:00 +19°C° 0 mm 4 m/s 740 mmHg 84%
    23:00 +19°C° 0 mm 4 m/s 740 mmHg 83%
    Voir plus